Tracking 17142 objects as of 28-May-2015
HD Live streaming from Space Station

EYESAT-1

Track EYESAT-1 now!
10-day predictions
EYESAT-1 is classified as:


NORAD ID: 22825
Int'l Code: 1993-061C
Perigee: 793.0 km
Apogee: 805.5 km
Inclination: 98.7 °
Period: 100.7 minutes
Semi major axis: 7170 km
RCS: 0.1804 m2 (medium)
Launch date: September 26, 1993
Source: South Korea (SKOR)

EYESAT 1, an American microsatellite was one of the six microsatellites that were launched along with SPOT 3 (93-061A). It was a relay satellite to acquire and relay environmental data from ground-based stations and certain industrial facilities.
Your satellite tracking list
Your tracking list is empty





NASA's NSSDC Master Catalog

Two Line Element Set (TLE):
1 22825U 93061C   15147.84061727  .00000056  00000-0  39035-4 0  9996
2 22825 098.7070 097.9459 0008746 016.1891 036.7433 14.29880373130034

Source of the keplerian elements: AFSPC

N2YO: 323